Regional Weather Roundup
Issued by NWS

Home | Current Version | Previous Version | Text Only | Print | Product List | Glossary On
Versions: 1 2 3 4 5 6 7 8 9 10 11 12 13 14 15 16 17 18 19 20 21 22 23 24 25 26 27 28 29 30 31 32 33 34 35 36 37 38 39 40 41 42 43 44 45 46 47 48 49 50
000
ASUS46 KLOX 270613
RWRCA

SOUTHERN CALIFORNIA WEATHER ROUNDUP
NATIONAL WEATHER SERVICE OXNARD CALIFORNIA
1100 PM PDT TUE MAY 26 2015

NOTE: "FAIR" INDICATES FEW OR NO CLOUDS BELOW 12,000 FEET WITH NO
SIGNIFICANT WEATHER AND/OR OBSTRUCTIONS TO VISIBILITY.

  -  STATIONS PRECEEDED BY AN ASTERISK (*) ARE NOT NWS OR FAA
     STATIONS AND ARE NOT SUBJECT TO NWS AND FAA QUALITY CONTROL.

CAZ041-042-087-270700-
LA AND ORANGE COUNTY COASTAL AREAS


CITY           SKY/WX    TMP DP  RH WIND       PRES   REMARKS
L.A. DOWNTOWN  MOCLDY    59  54  83 CALM      30.00R
L.A. AIRPORT   MOCLDY    58  54  86 SW5       30.01R
LONG BEACH     CLOUDY    62  54  74 W5        30.00R

CITY           SKY/WX    TMP DP  RH WIND       PRES   REMARKS
AVALON           N/A     59 N/A N/A MISG        N/A
FULLERTON      CLOUDY    63  54  72 CALM      29.98S
HAWTHORNE      MOCLDY    60  54  80 SW5       30.01R
*LOS ALAMITOS  CLOUDY    63  56  78 W3        29.99S
*REDONDO BEACH   N/A     59  54  83 SW3       30.00S
SANTA ANA      CLOUDY    62  54  74 W3        29.99S
STA MONICA APT MOCLDY    59  53  80 S5        30.00S
*STA MON PIER    N/A     59  55  87 SE1       30.00
*UCLA            N/A     59  52  77 S2        29.97S

$$

CAZ547-548-048-270700-
LA COUNTY VALLEYS AND INLAND EMPIRE


CITY           SKY/WX    TMP DP  RH WIND       PRES   REMARKS
BURBANK        MOCLDY    58  52  80 SE5       29.99R
VAN NUYS       MOCLDY    58  52  80 E6        29.99R

CITY           SKY/WX    TMP DP  RH WIND       PRES   REMARKS
CORONA AIRPORT PTCLDY    56  53  89 CALM      30.00R
*CHATSWORTH      N/A     60  53  78 E1        29.98S
CHINO          PTCLDY    60  54  80 NW5       30.00S
MARCH AFB      PTCLDY    56  53  89 W3        29.99F
*NORTHRIDGE      N/A     59  50  72 E3          N/A
ONTARIO        CLOUDY    60  53  77 VRB5      29.99S
*PASADENA        N/A     57  54  88 CALM        N/A
RIVERSIDE      CLEAR     60  53  77 W5        29.99F
SAN BERNARDINO NOT AVBL
*WHITEMAN AP   NOT AVBL
*WOODLAND HILL   N/A     59  52  77 NE2         N/A

$$

CAZ054-055-270700-
LA AND SAN BERNARDINO COUNTY MOUNTAINS


CITY           SKY/WX    TMP DP  RH WIND       PRES   REMARKS
*BIG BEAR AIRP PTCLDY    43  28  56 CALM      30.16S
SANDBERG       PTCLDY    60  45  57 NW12      30.06F

$$

CAZ028-029-059-060-099-270700-
ANTELOPE VALLEY AND SURROUNDING AREAS


CITY           SKY/WX    TMP DP  RH WIND       PRES   REMARKS
LANCASTER      PTCLDY    63  40  42 SW9       29.96S
PALMDALE       MOCLDY    64  32  30 SW15      29.97F

CITY           SKY/WX    TMP DP  RH WIND       PRES   REMARKS
29 PALMS       PTCLDY    75  42  30 W6        29.96R
BARSTOW/DAGGET MOCLDY    75  37  25 W16       29.91R
BISHOP         PTCLDY    70  33  25 SE10      29.95R
CHINA LAKE     MOCLDY    73  45  36 S13       29.88R
EDWARDS AFB    PTCLDY    65  43  45 SW13      29.92F
MOJAVE         FAIR      68  46  45 W18       29.94F
NEEDLES        CLOUDY    86  20   9 SW9       29.83F
VICTORVILLE    MOCLDY    63  39  42 SW5       29.98S

$$

CAZ039-040-270700-
VENTURA AND SANTA BARBARA COUNTY COAST


CITY           SKY/WX    TMP DP  RH WIND       PRES   REMARKS
CAMARILLO      MOCLDY    58  52  80 SW3       29.99R
OXNARD AIRPORT MOCLDY    58  53  84 W3        29.99S
*POINT MUGU    MOCLDY    59  54  83 W3        30.00S
SBA APT/GOLETA PTCLDY    59  54  83 E6        29.96S
*SANTA BARBARA   N/A     61  53  73 CALM      30.05S
*VENTURA         N/A     59  54  83 CALM      29.59S

$$

CAZ044-045-270700-
VENTURA COUNTY VALLEYS


CITY           SKY/WX    TMP DP  RH WIND       PRES   REMARKS
*SIMI VALLEY     N/A     56  51  84 CALM      29.95R
*OJAI            N/A     55  50  83 CALM      29.93S
*FILLMORE        N/A     57  51  79 CALM      29.89S

$$

CAZ053-270700-
VENTURA COUNTY MOUNTAINS


CITY           SKY/WX    TMP DP  RH WIND       PRES   REMARKS

$$

CAZ034-035-036-270700-
CENTRAL COAST AND SANTA YNEZ VALLEY


CITY           SKY/WX    TMP DP  RH WIND       PRES   REMARKS
SAN LUIS OBISP PTCLDY    54  48  80 NW7       30.01F
SANTA MARIA    PTCLDY    54  49  83 NW5       30.02S

CITY           SKY/WX    TMP DP  RH WIND       PRES   REMARKS
*CAL POLY SLO    N/A     55  50  82 W3G9        N/A
*LOMPOC        PTCLDY    54  46  76 W5        30.03S
*PISMO BEACH     N/A     56  49  80 W1        30.01F
*SANTA YNEZ    FAIR      52  46  82 W5        30.01S

$$

CAZ037-038-051-270700-
SAN LUIS OBISPO COUNTY INTERIOR AND CUYAMA VALLEY


CITY           SKY/WX    TMP DP  RH WIND       PRES   REMARKS
*CUYAMA          N/A     57  47  70 W3        29.94R
PASO ROBLES    CLEAR     53  48  83 SW5       30.00R

$$

CAZ032-033-061-270700-
SOUTHERN DESERTS


CITY           SKY/WX    TMP DP  RH WIND       PRES   REMARKS
BLYTHE         MOCLDY    81  42  25 SW6       29.83S
IMPERIAL       PTCLDY    79  48  33 CALM      29.81R
PALM SPRINGS   CLEAR     76  52  43 VRB5      29.85S
THERMAL        PTCLDY    78  52  40 NW14      29.80R

$$

ELSEWHERE ACROSS THE WESTERN UNITED STATES AND MEXICO


CITY           SKY/WX    TMP DP  RH WIND       PRES   REMARKS
DENVER, CO     MOCLDY    51  46  83 S10       30.07S
GRAND CANYON,  PTCLDY    45  37  73 CALM      30.18F
HONOLULU, HI   MOCLDY    73  63  68 N9        29.95R
KAHULUI, MAUI  CLOUDY    75  63  64 CALM      29.96
LAKE TAHOE, CA CLEAR     49  42  77 CALM      30.12S
LAS VEGAS, NV  CLOUDY    82  33  17 S15       29.83S
MAMMOTH LAKES, FAIR      50  37  62 CALM      30.15S
MEXICO CITY, M CLEAR     64  48  55 N5        30.34S
PHOENIX, AZ    MOCLDY    83  37  19 W10       29.86R
PORTLAND, OR   PTCLDY    61  53  75 NW6       30.02R
RENO, NV       PTCLDY    65  36  34 N9        30.02R
SALT LAKE CITY MOCLDY    56  49  77 S6        30.07R
SAN DIEGO, CA  CLOUDY    63  53  70 CALM      30.01F
SAN FRANCISCO, MOCLDY    57  49  74 W12       30.02S
SAN JOSE, CA   MOCLDY    58  50  75 N8        30.01S
SEATTLE, WA    PTCLDY    63  51  65 CALM      30.03S
TIJUANA, MEX   CLOUDY    59  54  82 W6        30.03S

$$

STATION/POSITION TIME  TEMP    WIND        PRES    VSBY  WAVE
                       AIR SEA DIR/SP/G                  HT/PER
                 (UTC) (F)     (DEG/KT/KT) (MB)    (MI)  (FT/S)
POINT ARGUELLO B NOT AVBL
WEST SANTA BARBA 0550   56 57  330/ 17/ 21 1015.0S         4/14
POINT CONCEPTION NOT AVBL
EAST SANTA BARBA 0600   57 58  260/ 12/ 14 1015.4S
SANTA MONICA BAY 0550   60 63  260/  2/  4 1015.9R         4/14


USA.gov is the U.S. government's official web portal to all federal, state and local government web resources and services.